Regional Weather Roundup
Issued by NWS

Home | Current Version | Previous Version | Text Only | Print | Product List | Glossary On
Versions: 1 2 3 4 5 6 7 8 9 10 11 12 13 14 15 16 17 18 19 20 21 22 23 24 25 26 27 28 29 30 31 32 33 34 35 36 37 38 39 40 41 42 43 44 45 46 47 48 49 50
000
ASUS44 KFWD 020415
RWRTX
NORTH TEXAS HOURLY WEATHER ROUNDUP
NATIONAL WEATHER SERVICE FORT WORTH TX
1100 PM CDT MON SEP 01 2014

NOTE: "FAIR" INDICATES FEW OR NO CLOUDS BELOW 12,000 FEET WITH NO
SIGNIFICANT WEATHER AND/OR OBSTRUCTIONS TO VISIBILITY.

TXZ118-119-020500-
DALLAS/FORT WORTH METROPLEX

CITY           SKY/WX    TMP DP  RH WIND       PRES   REMARKS
DFW AIRPORT    CLEAR     88  66  48 SE15      29.86S HX  90
DALLAS LOVE    CLEAR     88  69  53 S21       29.87S HX  92
FTW MEACHAM    CLEAR     89  67  47 S16       29.86S HX  92
DAL-EXECUTIVE  CLEAR     87  68  52 SE12G25   29.89R HX  90
FTW-ALLIANCE   CLEAR     87  66  49 S14       29.85S
FTW-NAS-JRB    CLEAR     90  65  43 SE16      29.90S HX  92
FTW-SPINKS     CLEAR     85  66  53 SE7       29.90R
ARLINGTON      CLEAR     88  65  46 SE17G23   29.88R HX  90
GRAND PRAIRIE  CLEAR     87  64  45 SE10      29.89R
ADDISON        CLEAR     88  66  48 S16G25    29.89S HX  90
MESQUITE       CLEAR     84  67  56 SE10      29.89S
LANCASTER      CLEAR     84  68  58 S12       29.90R
$$

TXZ091>094-102>105-117-120-121-131>134-020500-
NORTH CENTRAL TEXAS

CITY           SKY/WX    TMP DP  RH WIND       PRES   REMARKS
SHRMAN/DENISON CLEAR     85  66  52 SE16      29.87S
GAINESVILLE    CLEAR     83  69  61 SE13G18   29.88R
BOWIE          CLEAR     84  68  58 SE9       29.86R
BRIDGEPORT     CLEAR     87  63  44 S10G16    29.87S
DECATUR        CLEAR     85  65  51 SE13      29.88R
DENTON         CLEAR     87  65  47 S15       29.86R
MCKINNEY       CLEAR     84  69  60 S10       29.87S
GREENVILLE     CLEAR     82  70  65 SE15      29.89S
ROCKWALL       CLEAR     85  69  59 S13G18    29.88R
TERRELL        CLEAR     85  69  58 SE13      29.90S
WAXAHACHIE     CLEAR     84  65  51 SE12      29.91S
CLEBURNE       CLEAR     86  70  58 SE12      29.91R HX  90
GRANBURY       CLEAR     89  66  47 SE13      29.89R HX  91
$$

TXZ083>090-098>101-113>116-127>130-139>142-154-155-020500-
WESTERN NORTH TEXAS

CITY           SKY/WX    TMP DP  RH WIND       PRES   REMARKS
WICHITA FALLS  CLEAR     87  66  49 S20       29.80S
WF-KICKAPOO    CLEAR     87  64  46 S14G22    29.83R
VERNON         CLEAR     89  62  40 S16       29.79F
ABILENE        CLEAR     89  61  38 S15       29.88R
ABILENE-DYESS  CLEAR     86  63  45 S17       29.87R
BRECKENRIDGE   CLEAR     89  63  41 S12G20    29.85S
GRAHAM         CLEAR     88  64  44 SE13      29.83S
MINERAL WELLS  CLEAR     86  66  51 SE12      29.86R
STEPHENVILLE   CLEAR     85  65  51 SE12      29.93R
COMANCHE         N/A     85  64  49 S12G17    29.90S
BROWNWOOD      CLOUDY    84  64  51 SE10      29.90S
COLEMAN        CLEAR     84  60  44 S9        29.91R
BRADY          CLEAR     82  63  51 SE7       29.93R
$$

TXZ143>147-156>162-174-175-020500-
CENTRAL TEXAS

CITY           SKY/WX    TMP DP  RH WIND       PRES   REMARKS
WACO           CLEAR     87  69  54 S12       29.90R HX  91
WACO-TSTC      CLEAR     86  66  51 SE10      29.90R
WACO-MCGREGOR  CLEAR     86  66  51 S13       29.92R
HILLSBORO      CLEAR     85  65  51 SE12      29.90S
CORSICANA      CLEAR     85  71  63 S12       29.92R HX  90
MEXIA          CLEAR     82  73  72 SE7       29.92R
HEARNE           N/A     83  72  69 SE7       29.93R
CAMERON        CLEAR     85  70  61 S10       29.92R
TEMPLE         CLEAR     84  64  51 SE14      29.92R
KILLEEN        CLEAR     84  68  58 SE15      29.92R
KILLEEN-SKYLRK CLEAR     84  66  54 SE12      29.93R
FORT HOOD      CLEAR     88  68  51 SE10      29.93R HX  91
GATESVILLE     CLEAR     86  68  54 S9        29.93S
HAMILTON       CLEAR     85  67  55 SE15G21   29.93R
LAMPASAS       CLEAR     84  70  62 SE8       29.93R
$$

TXZ095>097-106>112-122>126-135>138-148>153-164>167-020500-
EAST TEXAS

CITY           SKY/WX    TMP DP  RH WIND       PRES   REMARKS
PARIS          CLEAR     79  64  61 S8        29.90S
SULPHUR SPRNGS CLEAR     84  69  59 S10       29.92R
MOUNT PLEASANT CLEAR     82  72  71 S9        29.92S
GILMER         CLEAR     84  73  70 S8        29.95R HX  91
MINEOLA        CLEAR     82  73  74 SE5       29.93R
TYLER          CLEAR     83  74  74 S15       29.92F
LONGVIEW       CLEAR     83  73  72 S13       29.93S
MARSHALL       CLEAR     82  77  82 S7        29.96S HX  90
ATHENS         CLEAR     81  72  74 SE7       29.92S
PALESTINE      CLEAR     82  73  74 SE6       29.94S
JACKSONVILLE   CLEAR     81  75  82 S9        29.97S
HENDERSON      CLEAR     81  73  76 S6        29.95S
NACOGDOCHES    CLEAR     81  75  83 S8        29.96S
LUFKIN         CLEAR     81  75  82 SE7       29.96S
$$

SUPPLEMENTAL OBSERVATIONS (CENTRAL)

CITY           SKY/WX    TMP DP  RH WIND       PRES   REMARKS
LAKE TEXOMA      N/A     84  66  54 SE9         N/A
CADDO GRASSLND   N/A     84  66  54 S8          N/A
PAT MAYSE LAKE   N/A     82  66  57 SE12        N/A
PALESTINE        N/A     81  73  78 S7          N/A
MCGREGOR         N/A     84  66  54 S13         N/A
TEMPLE           N/A     84  68  58 S12         N/A
$$

SUPPLEMENTAL OBSERVATIONS (WEST)

CITY           SKY/WX    TMP DP  RH WIND       PRES   REMARKS
MILLERS CREEK    N/A     88  59  37 S16         N/A
POSSUM KINGDOM   N/A     88  64  45 S13         N/A
LBJ GRASSLAND    N/A     86  66  51 SE12        N/A
GRANBURY         N/A     88  66  48 SE13        N/A  HX  90
HAMBY            N/A     88  59  37 S13         N/A
IVIE RESERVOIR   N/A     86  61  42 S10         N/A
COLORADO BEND    N/A     84  66  54 S12G21      N/A
$$

SUPPLEMENTAL OBSERVATIONS (EAST)

CITY           SKY/WX    TMP DP  RH WIND       PRES   REMARKS
TEXARKANA        N/A     81  73  78 SE3         N/A
LINDEN           N/A     81  72  74 S3          N/A
CADDO LAKE       N/A     81  73  78 SE2         N/A
LUFKIN           N/A     81  75  83 MISG        N/A
N SABINE NF      N/A     79  75  89 MISG        N/A
$$

SUPPLEMENTAL OBSERVATIONS ARE A COLLECTION OF AUTOMATED INSTRUMENTS
THAT ARE MAINTAINED BY A VARIETY OF FEDERAL AND STATE AGENCIES.
CERTAIN ELEMENTS...SUCH AS HUMIDITY VALUES AND SUSTAINED WIND
SPEEDS...MAY BE APPROXIMATED.



USA.gov is the U.S. government's official web portal to all federal, state and local government web resources and services.